Location: Julian California
(33.0790°N, 116.6010°W)
Time: 00:02:56
(UTC-08:00)

Envisat - Pass Details

Date: 19 May 2017
Orbit: 764 x 766 km, 98.2° (Epoch: 20 November)

Event Time Altitude Azimuth Distance (km) Brightness Sun altitude
Exits shadow 20:17:44 - 140° (SE) 2,538 5.1 -7.5°
Reaches altitude 10° 20:18:24 10° 137° (SE) 2,292 4.9 -7.6°
Maximum altitude 20:23:00 36° 72° (ENE) 1,189 3.7 -8.4°
Drops below altitude 10° 20:27:37 10° 6° (N) 2,305 5.8 -9.2°
Sets 20:30:04 0° 358° (N) 3,235 6.7 -9.7°
